Regional Weather Roundup
Issued by NWS

Home | Current Version | Previous Version | Text Only | Print | Product List | Glossary Off
Versions: 1 2 3 4 5 6 7 8 9 10 11 12 13 14 15 16 17 18 19 20 21 22 23 24 25 26 27 28 29 30 31 32 33 34 35 36 37 38 39 40 41 42 43 44 45 46 47 48 49 50

000
ASUS43 KLOT 021108
RWRIL

ILLINOIS REGIONAL WEATHER ROUNDUP
NATIONAL WEATHER SERVICE CHICAGO/ROMEOVILLE IL
600 AM CDT TUE JUN 02 2015

NOTE: "FAIR" INDICATES FEW OR NO CLOUDS BELOW 12,000 FEET WITH NO
SIGNIFICANT WEATHER AND/OR OBSTRUCTIONS TO VISIBILITY.

* THESE STATIONS ARE NOT UNDER NWS QUALITY CONTROL. THEY ALSO MAY NOT
  REPORT WEATHER SUCH AS PRECIPITATION OR FOG.

ILZ001-002-007-009-015-016-024-021200-
NORTHWEST ILLINOIS

CITY           SKY/WX    TMP DP  RH WIND       PRES   REMARKS
MOLINE         CLOUDY    51  47  86 E5        30.17F
STERLING*      CLEAR     45  39  81 E6        30.18F
SAVANNA*       CLEAR     46  42  85 NE3       30.19S
$$

ILZ003-004-008-010-011-017-018-021200-
NORTH CENTRAL ILLINOIS

CITY           SKY/WX    TMP DP  RH WIND       PRES   REMARKS
ROCKFORD       MOCLDY    44  39  82 CALM      30.22R
FREEPORT*      CLEAR     39  36  88 CALM      30.21S
ROCHELLE*      CLEAR     42  39  88 CALM      30.21R
DE KALB*       CLEAR     41  37  84 CALM      30.20R
PERU*          CLEAR     46  39  75 NE5       30.19R
$$

ILZ005-006-012>014-019>023-021200-
NORTHEAST ILLINOIS

CITY           SKY/WX    TMP DP  RH WIND       PRES   REMARKS
CHICAGO-OHARE  PTCLDY    45  39  79 CALM      30.19R
CHICAGO-MIDWAY PTCLDY    46  41  82 CALM      30.19R
AURORA         CLEAR     43  38  82 CALM      30.19R
LANSING*       CLEAR     40  38  91 CALM      30.19S
JOLIET*        CLEAR     42  40  95 CALM      30.19S
WAUKEGAN       CLEAR     43  40  89 N3        30.20R
DUPAGE AIRPORT CLEAR     42  37  82 CALM      30.19R
KANKAKEE*      CLEAR     43  41  93 CALM      30.20R
WHEELING       CLEAR     43  39  86 CALM      30.21R
MORRIS*        CLEAR     45  38  77 CALM      30.15S
ROMEOVILLE*    CLEAR     42  37  84 CALM      30.19R
NORTHERLY ISL    N/A     49  44  83 NE2         N/A
$$

LMZ740>746-021200-
SOUTHERN LAKE MICHIGAN

STATION/POSITION SKY/WX   TEMP    WIND        PRES    VSBY  WAVE
                          AIR SEA DIR/SP/G                  HT/PER
                          (F)     (DEG/KT/KT) (MB)    (MI)  (FT/S)
SOUTHERN BUOY              42 38   70/  6/  6 1023.1R         1
HARRISON CRIB              48      10/  4/  4   N/A
BURNHAM HARBOR             50      40/  2/  2   N/A
CALUMET HARBOR             47      CALM  /  1   N/A
BURNS HARBOR                      190/  5/  6 1022.7S
MICHIGAN CITY              48     130/  6/  8   N/A
MICHIGAN CITY 6N           52 55  180/  8/ 10   N/A           2/ 4
ST. JOSEPH                 53 55  200/  8/ 10   N/A           1
$$

ILZ025>027-034>036-040-047-049-050-058-095>099-021200-
WEST-CENTRAL ILLINOIS

CITY           SKY/WX    TMP DP  RH WIND       PRES   REMARKS
QUINCY         CLOUDY    56  53  90 E6        30.14S
GALESBURG*     CLEAR     49  43  82 CALM      30.17R
MACOMB*        MOCLDY    48  48 100 E3        30.18F FOG
JACKSONVILLE*  CLOUDY    57  55  93 E6        30.15S FOG
PITTSFIELD*    CLOUDY    57  54  91 NE3       30.16S
$$

ILZ028>032-037-038-041>044-048-051>054-059>061-021200-
CENTRAL ILLINOIS

CITY           SKY/WX    TMP DP  RH WIND       PRES   REMARKS
PONTIAC        CLEAR     48  46  91 CALM      30.19S
BLOOMINGTON    MOCLDY    52  49  89 NE5       30.18S
DECATUR        CLEAR     50  48  93 NE6       30.16R FOG
PEORIA         CLOUDY    51  43  74 E3        30.17S
LACON*         CLEAR     45  42  90 CALM      30.17S
LINCOLN*       CLOUDY    54  50  87 CALM      30.16S
SPRINGFIELD    CLOUDY    56  53  90 N3        30.17R
TAYLORVILLE    CLEAR     50  50 100 NE3       30.15S FOG
$$

ILZ033-039-045-046-055>057-062-063-021200-
EAST-CENTRAL ILLINOIS

CITY           SKY/WX    TMP DP  RH WIND       PRES   REMARKS
CHAMPAIGN      CLEAR     52  50  93 NE7       30.17R
DANVILLE*      CLEAR     48  47  97 N8        30.15R FOG
RANTOUL*       CLEAR     51  48  90 NE5       30.18R
MATTOON        CLOUDY    51  48  89 NE3       30.15R FOG
PARIS*         CLEAR     50  49  96 N3        30.17R FOG
$$

ILZ079-100>102-021200-
SOUTHWEST ILLINOIS

CITY           SKY/WX    TMP DP  RH WIND       PRES   REMARKS
ALTON          CLOUDY    57  57 100 CALM      30.15R FOG
BELLEVILLE     CLOUDY    58  58  99 N5        30.12S
CAHOKIA*       CLOUDY    61  57  87 NE3       30.13S
SPARTA*        CLOUDY    58  56  93 CALM      30.13S
$$

ILZ064>066-069>071-074>076-080>082-084>086-088>090-092>094-021200-
SOUTH-CENTRAL ILLINOIS

CITY           SKY/WX    TMP DP  RH WIND       PRES   REMARKS
CARBONDALE     CLOUDY    58  55  90 N6        30.12R
CAIRO*         CLOUDY    59  57  91 N6        30.10S
EFFINGHAM*     CLOUDY    55  52  89 CALM      30.16R FOG
MARION         CLOUDY    59  57  94 CALM      30.12S FOG
MT. VERNON     CLOUDY    57  52  82 N3        30.14R
CENTRALIA*     CLOUDY    58  52  81 CALM      30.13S
SALEM*         CLOUDY    60  53  79 CALM      30.14R
$$

ILZ067-068-072-073-078-083-087-091-021200-
SOUTHEAST ILLINOIS

CITY           SKY/WX    TMP DP  RH WIND       PRES   REMARKS
LAWRENCEVILLE  CLOUDY    57  51  80 NE6       30.14R
FLORA*         CLOUDY    57  52  82 NE6       30.14R
FAIRFIELD*     CLOUDY    58  53  83 E3        30.12R
HARRISBURG*    RAIN      58  58  99 N5        30.13R
ROBINSON*      CLOUDY    56  51  84 CALM      30.14S
CARMI*         CLOUDY    57  52  82 NE5       30.11R
$$

ABBREVIATIONS USED IN REMARKS
   TC - TEMPERATURE IN CELSIUS
  WCI - WIND CHILL INDEX
   HX - HEAT INDEX
  VSB - VISIBILITY
$$



USA.gov is the U.S. government's official web portal to all federal, state and local government web resources and services.